{"data":{"norad_id":59651,"intl_designator":"2024-082W","name":"STARLINK-31277","alt_names":[],"object_type":"PAYLOAD","status":"ACTIVE","operator":null,"country":"US","launch_date":"2024-05-03","launch_site_code":"AFETR","launch_vehicle":null,"mission":null,"orbit_class":"UNKNOWN","rcs_meters":null,"size_class":null,"mass_kg":null,"dimensions":null,"purposes":["comms"],"wikipedia_slug":null,"has_3d_model":false,"image_url":null,"decayed_at":null,"tle_current":{"epoch":"2026-05-25T01:55:30.799776Z","epoch_age_seconds":65341,"freshness":"FRESH","line1":"1 59651U 24082W   26145.08021759  .00000634  00000+0  32546-4 0  9998","line2":"2 59651  43.0020  68.5015 0000812 253.2454 106.8309 15.27574246116691","mean_motion":15.27574246,"eccentricity":8.12e-5,"inclination_deg":43.002,"raan_deg":68.5015,"arg_perigee_deg":253.2454,"mean_anomaly_deg":106.8309,"bstar":3.2546e-5,"rev_number":11669,"period_min":94.267103793527,"perigee_km":482.50919592968,"apogee_km":483.62345534977,"semimajor_km":6861.2033256397,"source":"CELESTRAK","updated_at":"2026-05-25T13:38:19.016598Z"}}}